Regional Weather Roundup
Issued by NWS Little Rock, AR

Home | Current Version | Previous Version | Graphics & Text | Print | Product List | Glossary On
Versions: 1 2 3 4 5 6 7 8 9 10 11 12 13 14 15 16 17 18 19 20 21 22 23 24 25 26 27 28 29 30 31 32 33 34 35 36 37 38 39 40 41 42 43 44 45 46 47 48 49 50
000
ASUS44 KLZK 291905
RWRLZK

WEATHER ROUNDUP FOR ARKANSAS
NATIONAL WEATHER SERVICE LITTLE ROCK AR
100 PM CST THU JAN 29 2015

NOTE: "FAIR" INDICATES FEW OR NO CLOUDS BELOW 12,000 FEET WITH NO
SIGNIFICANT WEATHER AND/OR OBSTRUCTIONS TO VISIBILITY.

ARZ001-003-010-029-292000-
NORTHWEST ARKANSAS

CITY           SKY/WX    TMP DP  RH WIND       PRES   REMARKS
FAYETTEVILLE   CLOUDY    41  32  70 N17G26    30.32R
FORT SMITH     MOSUNNY   51  34  52 NW18G29   30.31R
HARRISON       CLOUDY    40  33  76 NW16G24   30.28R
BENTONVILLE    CLOUDY    41  28  60 NW9G20    30.34S
ROGERS         CLOUDY    40  32  73 NW15G22   30.33S
SILOAM SPGS    CLOUDY   N/A N/A N/A N22G30    30.35S
HIGHFILL       CLOUDY    41  31  67 NW17G24   30.33R
SPRINGDALE     CLOUDY    41  32  70 NW17G29   30.33S
$$

ARZ004-005-016-292000-
NORTH CENTRAL ARKANSAS

CITY           SKY/WX    TMP DP  RH WIND       PRES   REMARKS
BATESVILLE     PTSUNNY   55  37  50 NW10G18   30.18S
FLIPPIN        CLOUDY    45  32  61 NW17G26   30.26R
MTN HOME       CLOUDY    43  35  73 NW13G28   30.24R HAZE
$$

ARZ040-041-292000-
WEST CENTRAL ARKANSAS

CITY           SKY/WX    TMP DP  RH WIND       PRES   REMARKS
MENA           CLOUDY    59  37  44 N9G16     30.23F
MOUNT IDA      CLOUDY    58  36  43 NW14G21   30.19F
$$

ARZ009-017-025-026-028-292000-
NORTHEAST ARKANSAS

CITY           SKY/WX    TMP DP  RH WIND       PRES   REMARKS
CORNING        FAIR      50  37  62 N17       30.19R
JONESBORO      PTSUNNY   53  39  59 NW15G22   30.15R
NEWPORT        CLOUDY    58  39  49 NW24      30.17S
WALNUT RIDGE   CLOUDY    52  36  54 NW21G28   30.18R
BLYTHEVILLE    PTSUNNY   60  43  53 N18       30.13R
NW BLYTHEVILLE PTSUNNY   57  41  54 NW15G22   30.13
$$

ARZ022-023-033-042-044-292000-
CENTRAL ARKANSAS

CITY           SKY/WX    TMP DP  RH WIND       PRES   REMARKS
LITTLE ROCK    CLOUDY    66  37  34 NW15      30.16S
N LITTLE ROCK  CLOUDY    63  42  47 NW9G20    30.16S
JACKSONVILLE   PTSUNNY   66  39  37 NW9       30.15S
SEARCY         CLOUDY    61  40  45 N12G21    30.18R
HOT SPRINGS    CLOUDY    62  38  40 NW9G22    30.19S
RUSSELLVILLE   MOSUNNY   61  37  41 W16G23    30.18S
CLINTON        FAIR      55  39  54 NW15G26   30.22R HAZE
$$

ARZ036-292000-
EAST ARKANSAS

CITY           SKY/WX    TMP DP  RH WIND       PRES   REMARKS
WEST MEMPHIS   CLOUDY    61  43  51 N12G18    30.11S
$$

ARZ050-053-066-070-073-292000-
SOUTHWEST ARKANSAS

CITY           SKY/WX    TMP DP  RH WIND       PRES   REMARKS
ARKADELPHIA    FAIR      67  40  37 NW16      30.18F
CAMDEN         PTSUNNY   70  45  40 MISG      30.16F
TEXARKANA      MOSUNNY   69  39  33 N12       30.20F
EL DORADO      PTSUNNY   67  48  50 W10       30.16F
DE QUEEN       MOSUNNY   66  38  35 N10G21    30.20F
$$

ARZ056-057-069-292000-
SOUTHEAST ARKANSAS

CITY           SKY/WX    TMP DP  RH WIND       PRES   REMARKS
PINE BLUFF     CLOUDY    65  43  44 NW12      30.15S
STUTTGART      CLOUDY    64  45  48 W12       30.15R
MONTICELLO     MOSUNNY   71  47  42 NW8       30.13F

$$





USA.gov is the U.S. government's official web portal to all federal, state and local government web resources and services.